This demonstration page uses our WeatherBlox Daily Observations layout. Learn more.

Left ArrowRight Arrow

39.51506, -84.39828

Hourly Observations for October 16, 2015

Temp ( °F °C ) Dew Point ( °F °C ) Humidity (%) Winds ( mph kmh ) Pressure ( in mb ) Visibility ( mi km ) Precip ( " mm )
12:15 am 00:15 Clear 61 16.2 30 -1.3 30 30 NW 13 20 30.03 1017 10 16 N/A
12:35 am 00:35 Clear 61 16 32 -0.2 33 33 NNW 10 17 30.09 1019 10 16 N/A
12:55 am 00:55 Clear 60 15.3 35 1.7 40 40 N 7 11 30.09 1019 10 16 N/A
1:15 am 01:15 Clear 57 13.9 36 2.1 45 45 N 6 9 30.09 1019 10 16 N/A
1:35 am 01:35 Clear 57 13.8 37 3 48 48 NNW 3 6 30.12 1020 10 16 N/A
1:55 am 01:55 Clear 55 12.5 37 2.7 52 52 N 5 7 30.12 1020 10 16 N/A
2:15 am 02:15 Clear 55 12.5 38 3.5 55 55 N 3 6 30.12 1020 10 16 N/A
2:35 am 02:35 Clear 55 12.5 39 3.9 56 56 N N/A 30.12 1020 10 16 N/A
2:55 am 02:55 Clear 51 10.3 38 3.2 62 62 SSW 3 6 30.12 1020 10 16 N/A
3:15 am 03:15 Clear 49 9.6 41 4.8 72 72 N N/A 30.12 1020 10 16 N/A
3:35 am 03:35 Clear 47 8.4 40 4.6 77 77 N N/A 30.15 1021 10 16 N/A
3:55 am 03:55 Clear 48 9.1 41 5.1 76 76 NW 3 6 30.15 1021 10 16 N/A
4:15 am 04:15 Clear 49 9.6 38 3.6 66 66 NW 3 6 30.15 1021 10 16 N/A
4:35 am 04:35 Clear 47 8.2 39 4.1 76 76 NW 5 7 30.15 1021 10 16 N/A
4:55 am 04:55 Clear 43 6.1 37 3 81 81 S 3 6 30.15 1021 10 16 N/A
5:15 am 05:15 Clear 42 5.5 36 2.2 80 80 N N/A 30.15 1021 10 16 N/A
5:35 am 05:35 Clear 41 5.2 37 2.9 85 85 N N/A 30.21 1023 10 16 N/A
5:55 am 05:55 Clear 42 5.5 37 3 84 84 N N/A 30.18 1022 10 16 N/A
6:15 am 06:15 Clear 40 4.7 37 2.7 87 87 N N/A 30.21 1023 10 16 N/A
6:35 am 06:35 Clear 39 4.1 36 2.2 88 88 N N/A 30.21 1023 10 16 N/A
6:55 am 06:55 Clear 40 4.3 36 2.4 88 88 N N/A 30.24 1024 10 16 N/A
7:15 am 07:15 Clear 40 4.4 36 2.4 87 87 N N/A 30.24 1024 10 16 N/A
7:35 am 07:35 Clear 42 5.7 35 1.7 76 76 N N/A 30.21 1023 10 16 N/A
7:55 am 07:55 Sunny 42 5.3 34 1.3 76 76 N N/A 30.24 1024 10 16 N/A
8:15 am 08:15 Sunny 43 5.9 36 2.1 77 77 WNW 5 7 30.24 1024 10 16 N/A
8:35 am 08:35 Sunny 47 8.2 38 3.6 73 73 W 5 7 30.24 1024 10 16 N/A
8:55 am 08:55 Sunny 49 9.6 40 4.2 69 69 N N/A 30.24 1024 10 16 N/A
9:15 am 09:15 Sunny 49 9.7 38 3.1 64 64 W 6 9 30.24 1024 10 16 N/A
9:35 am 09:35 Sunny 52 11 38 3.3 59 59 WNW 9 15 30.24 1024 10 16 N/A
9:55 am 09:55 Sunny 55 12.5 38 3.5 55 55 W 8 13 30.24 1024 10 16 N/A
10:15 am 10:15 Sunny 55 12.6 37 2.5 50 50 WNW 7 11 30.24 1024 10 16 N/A
10:35 am 10:35 Sunny 57 13.8 37 2.8 48 48 WNW 5 7 30.24 1024 10 16 N/A
10:55 am 10:55 Sunny 60 15.3 38 3.3 45 45 NW 8 13 30.24 1024 10 16 N/A
11:15 am 11:15 Sunny 60 15.3 36 2.2 41 41 WNW 6 9 30.24 1024 10 16 N/A
11:35 am 11:35 Sunny 60 15.3 33 0.7 37 37 W 9 15 30.24 1024 10 16 N/A
11:55 am 11:55 Sunny 60 15.8 29 -1.6 31 31 WNW 13 20 30.24 1024 10 16 N/A
12:15 pm 12:15 Partly Cloudy 60 15.3 27 -2.7 29 29 NW 10 17 30.24 1024 10 16 N/A
12:35 pm 12:35 Partly Cloudy 61 16 25 -4.1 25 25 NW 14 22 30.24 1024 10 16 N/A
12:55 pm 12:55 Partly Cloudy 62 16.5 25 -3.8 25 25 NW 13 20 30.24 1024 10 16 N/A
1:15 pm 13:15 Partly Cloudy 62 16.7 26 -3.6 25 25 WNW 14 22 30.24 1024 10 16 N/A
1:35 pm 13:35 Hazy 63 17.1 23 -5 22 22 WNW 13 20 30.24 1024 5 8 N/A
1:55 pm 13:55 Partly Cloudy 63 17.1 22 -5.6 21 21 NW 10 17 30.21 1023 10 16 N/A
2:15 pm 14:15 Sunny 63 17.2 20 -6.7 19 19 W 13 20 30.21 1023 10 16 N/A
2:35 pm 14:35 Sunny 64 18 21 -6.2 19 19 NNW 10 17 30.18 1022 10 16 N/A
2:55 pm 14:55 Sunny 64 18 19 -7.3 17 17 WNW 12 19 30.18 1022 10 16 N/A
3:15 pm 15:15 Sunny 64 18 18 -7.9 16 16 WNW 14 22 30.18 1022 10 16 N/A
3:35 pm 15:35 Sunny 64 18 18 -7.9 16 16 WNW 12 19 30.18 1022 10 16 N/A
3:55 pm 15:55 Sunny 64 18 19 -7.2 17 17 W 13 20 30.18 1022 10 16 N/A
4:15 pm 16:15 Sunny 64 18 19 -7.1 17 17 NW 7 11 30.18 1022 10 16 N/A
4:35 pm 16:35 Sunny 64 17.9 18 -7.7 17 17 WNW 13 20 30.18 1022 10 16 N/A
4:55 pm 16:55 Sunny 63 17.2 18 -7.9 17 17 WNW 10 17 30.21 1023 10 16 N/A
5:15 pm 17:15 Sunny 63 17 16 -8.7 16 16 W 14 22 30.21 1023 10 16 N/A
5:35 pm 17:35 Sunny 62 16.6 16 -8.7 17 17 W 14 22 30.21 1023 10 16 N/A
5:55 pm 17:55 Sunny 62 16.6 19 -7.4 19 19 WNW 10 17 30.21 1023 10 16 N/A
6:15 pm 18:15 Sunny 60 15.8 19 -7.3 20 20 WNW 10 17 30.21 1023 10 16 N/A
6:35 pm 18:35 Sunny 60 15.3 20 -6.6 22 22 W 9 15 30.21 1023 10 16 N/A
6:55 pm 18:55 Sunny 57 13.8 22 -5.8 25 25 WNW 6 9 30.21 1023 10 16 N/A
7:15 pm 19:15 Clear 55 12.6 22 -5.3 29 29 WNW 7 11 30.21 1023 10 16 N/A
7:35 pm 19:35 Clear 55 12.5 24 -4.4 31 31 WNW 5 7 30.24 1024 10 16 N/A
7:55 pm 19:55 Clear 55 12.5 23 -4.9 30 30 WNW 3 6 30.24 1024 10 16 N/A
8:15 pm 20:15 Clear 52 11 29 -1.9 41 41 WNW 5 7 30.24 1024 10 16 N/A
8:35 pm 20:35 Clear 49 9.6 32 0.2 52 52 WNW 3 6 30.24 1024 10 16 N/A
8:55 pm 20:55 Clear 47 8.4 32 -0.2 55 55 WNW 6 9 30.24 1024 10 16 N/A
9:15 pm 21:15 Clear 52 10.9 28 -2.4 40 40 NNW 7 11 30.24 1024 10 16 N/A
9:35 pm 21:35 Clear 51 10.6 28 -2.4 40 40 N 8 13 30.24 1024 10 16 N/A
9:55 pm 21:55 Clear 50 10.1 29 -1.9 43 43 N 7 11 30.24 1024 10 16 N/A
10:15 pm 22:15 Clear 49 9.6 29 -1.7 46 46 N 7 11 30.27 1025 10 16 N/A
10:35 pm 22:35 Clear 49 9.6 29 -1.7 46 46 N 9 15 30.27 1025 10 16 N/A
10:55 pm 22:55 Clear 49 9.6 29 -1.6 46 46 N 8 13 30.27 1025 10 16 N/A
11:15 pm 23:15 Clear 49 9.6 30 -1.1 48 48 N 8 13 30.27 1025 10 16 N/A
11:35 pm 23:35 Clear 49 9.6 31 -0.8 49 49 N 8 13 30.27 1025 10 16 N/A
11:55 pm 23:55 Clear 47 8.2 30 -1.1 52 52 N 7 11 30.27 1025 10 16 N/A

Powered by AerisWeather